Home > Time Zones > World Clock > Weather > U.S.A. > Reno > Past weeks

Flag for U.S.A. Weather past 2 weeks in Reno, Nevada, U.S.A.

Now
74 °F

Passing clouds.


Feels Like: 75 °F
Forecast: 42 / 71 °F
Wind: 22 mph from Southwest

Location: Reno Tahoe International Airport

Current Time: Oct 20, 2014 at 2:38:02 PM

Latest Report: Oct 20, 2014 at 1:55 PM


Visibility: 10 mi

Pressure: 29.77 "Hg

Humidity: 19%

Dew point: 29 °F

Location of RenoLocation

Historic Weather in Reno — Graph

°F

Reno temperature yesterday

Maximum temperature yesterday: 79 °F (at 3:55 PM)
Minimum temperature yesterday: 42 °F (at 5:55 AM)
Average temperature yesterday: 58 °F

Past Weeks' High & Low Weather Summary

 TemperatureHumidityPressure
High86 °F (Oct 6, 3:55 PM)73% (Oct 16, 5:55 AM)30.23 "Hg (Oct 16, 5:55 AM)
Low41 °F (Oct 13, 6:55 AM)9% (Oct 8, 2:55 PM)29.60 "Hg (Oct 14, 11:55 PM)
Average61 °F35%29.96 "Hg
* Reported Oct 5 12:55 PM — Oct 20 12:55 PM, Reno, Weather by CustomWeather, © 2014

Note: Actual official high and low records may vary slightly from our data, if they occured in-between our weather recording intervals... More about our weather records

Advertising

Reno weather history for previous 24 hours

 ConditionsComfort  
Time TempWeatherWind HumidityBarometerVisibility
12:55 PM
Oct 20
72 °FPassing clouds.22 mph21%29.78 "Hg10 mi
11:55 AM72 °FScattered clouds.29 mph22%29.80 "Hg10 mi
10:55 AM69 °FScattered clouds.12 mph24%29.82 "Hg10 mi
9:55 AM61 °FPassing clouds.No wind34%29.85 "Hg10 mi
8:55 AM51 °FScattered clouds.No wind52%29.87 "Hg10 mi
7:55 AM46 °FPassing clouds.No wind61%29.86 "Hg10 mi
6:55 AM44 °FPassing clouds.No wind68%29.85 "Hg10 mi
5:55 AM46 °FClear.3 mph63%29.85 "Hg10 mi
4:55 AM47 °FClear.No wind61%29.84 "Hg10 mi
3:55 AM49 °FClear.No wind55%29.84 "Hg10 mi
2:55 AM49 °FClear.No wind57%29.83 "Hg10 mi
1:55 AM49 °FClear.6 mph57%29.85 "Hg10 mi
12:55 AM51 °FClear.3 mph52%29.84 "Hg10 mi
11:55 PM
Oct 19
55 °FClear.3 mph45%29.85 "Hg10 mi
10:55 PM60 °FClear.No wind35%29.87 "Hg10 mi
9:55 PM59 °FClear.3 mph38%29.88 "Hg10 mi
7:55 PM66 °FClear.No wind29%29.88 "Hg10 mi
6:55 PM69 °FSunny.8 mph26%29.85 "Hg10 mi
5:55 PM73 °FSunny.10 mph20%29.83 "Hg10 mi
4:55 PM77 °FSunny.9 mph15%29.80 "Hg10 mi
3:55 PM79 °FSunny.13 mph14%29.81 "Hg10 mi
2:55 PM78 °FSunny.No wind15%29.82 "Hg10 mi
Weather by CustomWeather, © 2014

See weather overviewHow to use our weather pages